Showing default

S-NET B, 43187

Orbit data source: Space-Track

S-NET B, 43187 is a payload satellite owned by TUB (DE) in SSO that was launched on Thu, 01 Feb 2018 UTC via a SOYUZ-2-1A launch vehicle from the Vostochny Cosmodrome (VOSTO). Payload-class satellites include a variety of spacecraft equipped with specific instruments for various scientific and technological missions. These include communications satellites like Starlink; space stations such as the ISS; scientific satellites like the Hubble; Earth observation satellites from companies like Planet Labs, Umbra, and HawkEye 360; GPS; miniature CubeSats for education and research; and military/defense satellites.

Loading next visibility...
Identifier
43187, 2018-014H
Orbit
SSO
Last TLE update
9 hours ago
Origin
Manufacturer
TUB
Mission
Operational Commercial Com/Tech
Bus & Motor
TUBIX10, Unknown motor
Mass
8 kg wet, 8 kg dry
Launch date (UTC)
2018-02-01 (7 years ago)
Launch vehicle
SOYUZ-2-1A
Launch site
Vostochny Cosmodrome (VOSTO)
Object type
Payload
Rocket body
Debris
Shape & HBR
Box, 0.24 m
Radar Cross Section
0.086 m², Medium (>0.1 m² and < 1m²)

Expand to show TLE details & history

TLE from 9 hours ago
0 S-NET B
1 43187U 18014H   25191.61005114  .00003088  00000-0  18326-3 0  9995
2 43187  97.5607  94.1744 0011368 110.4622 249.7830 15.12036878407064
Epoch: 2025-07-10T14:38Z
TLE epoch observation values (Epoch: 2025-07-10T14:38:28.418Z)
Latitude
-0.00002°
Longitude
-54.21787°
Altitude
535.786 km
Speed
7.593 km/s
True Right ascension
06h 16m 41s
True Declination
0° 00' 00"
Sunlit
Object was in daylight at epoch
Visualization orbit readout
Latitude
-82.4799°
Longitude
36.59946°
Altitude
565.781 km
Speed
7.573 km/s
Apparent Right ascension
23h 58m 27s
Apparent Declination
-69° 56' 57"
Sunlit
Object is in daylight
Visualization observer readout
Local Sidereal Time
12:02:27
Azimuth
179.316° S
Elevation
-59.962°
Doppler factor
1
Orbital elements
Apogee altitude
534.822 km
Perigee altitude
519.122 km
Semi-major axis
6,905.109 km
Eccentricity
0.00114
Inclination
97.5607°
RAAN
94.1744°
Arg. of periapsis
110.4622°
True anomaly
Unknown
Mean anomaly
249.783°
Eccentric anomaly
Unknown
Mean motion
3.78257 °/min
Orbital period
95.17 mins
BSTAR
0.00018326
Loading maneuver chart data...
Loading SW <> Apogee altitude chart data...
Loading historical data...
Loading historical data...
Loading historical data...
Loading historical data...
Loading historical data...
Loading historical data...
Loading historical data...

S-NET B Visibility forecast

Observer location: undefined°, undefined°

Span
Click to sort rows by Start time (UTC) header in descending order
Start Az.
Max El. time (UTC)
Max El. Az.
Max El.
End time (UTC)
End Az.
4 mins2025-07-11 05:31:20.014Z55.936° ENE2025-07-11 05:33:20.014Z92.157° ESE17.535°2025-07-11 05:35:20.014Z129.77° SE
4 mins2025-07-11 07:06:20.014Z325.243° NNW2025-07-11 07:07:20.014Z301.478° NW24.097°2025-07-11 07:10:20.014Z236.494° WSW
6 mins2025-07-11 17:46:20.014Z181.616° SSW2025-07-11 17:49:20.014Z286.433° WNW40.487°2025-07-11 17:52:20.014Z339.476° N
|